Hourly Data Report for June 22, 2012

All times are specified in Local Standard Time (LST). Add 1 hour to adjust for Daylight Saving Time where and when it is observed.

SAINT JOHN A
NEW BRUNSWICK

45°18'58.000" N
65°53'24.000" W
108.80 m
8104901
71609
YSJ

Download Data

Hourly Data (June 2012)
Hourly Data Report for June 22, 2012
Temp Definition
°C
Dew Point Temp Definition
°C
Rel Hum Definition
%
Wind Dir Definition
10's deg

Wind Spd Definition
km/h
Visibility Definition
km
Stn Press Definition
kPa
Hmdx Definition


Wind Chill Definition


Weather Definition


TIME
00:00 Legend Double Dagger 15.2 12.2 82 21 8 10.0 99.58     LegendNANA
01:00 Legend Double Dagger 15.8 13.5 86 12 9 10.0 99.56     LegendNANA
02:00 Legend Double Dagger 14.9 12.6 86   0 10.0 99.56     Clear
03:00 Legend Double Dagger 15.6 12.8 83   0 10.0 99.57     LegendNANA
04:00 Legend Double Dagger 15.3 12.5 83 15 8 10.0 99.56     LegendNANA
05:00 Legend Double Dagger 16.1 12.1 77 14 5 10.0 99.58     Cloudy
06:00 Legend Double Dagger 16.9 13.1 78 17 9 10.0 99.61     LegendNANA
07:00 Legend Double Dagger 17.4 13.8 79 14 10 10.0 99.64     LegendNANA
08:00 Legend Double Dagger 17.1 13.7 80 17 13 10.0 99.66     Rain Showers
09:00 Legend Double Dagger 16.8 14.3 85 15 11 10.0 99.69     Rain Showers
10:00 Legend Double Dagger 17.8 14.5 81 15 15 10.0 99.67     LegendNANA
11:00 Legend Double Dagger 20.8 14.5 67 17 17 10.0 99.66     Mostly Cloudy
12:00 Legend Double Dagger 22.1 14.4 61 17 17 10.0 99.64 26   LegendNANA
13:00 Legend Double Dagger 24.1 15.7 59 18 20 10.0 99.64 29   LegendNANA
14:00 Legend Double Dagger 23.6 15.0 58 22 19 10.0 99.63 28   Mostly Cloudy
15:00 Legend Double Dagger 23.4 15.6 61 20 22 10.0 99.58 28   LegendNANA
16:00 Legend Double Dagger 21.8 16.2 70 22 18 10.0 99.59 27   LegendNANA
17:00 Legend Double Dagger 20.4 15.5 73 17 16 10.0 99.58 25   Cloudy
18:00 Legend Double Dagger 20.2 14.2 68 20 17 10.0 99.64     LegendNANA
19:00 Legend Double Dagger 18.7 13.6 72 21 11 10.0 99.59     LegendNANA
20:00 Legend Double Dagger 16.9 13.1 78 25 10 10.0 99.67     Cloudy
21:00 Legend Double Dagger 17.0 13.6 80 33 8 10.0 99.80     LegendNANA
22:00 Legend Double Dagger 15.7 15.1 96 32 9 10.0 99.84     Rain Showers
23:00 Legend Double Dagger 15.4 14.8 96 17 10 10.0 99.75     Rain Showers

Notes on Data Quality.

Legend

  • E = Estimated
  • M = Missing
  • NA = Not Available
  • ‡ = Partner data that is not subject to review by the National Climate Archives
Date modified: